FENGYUN 1C DEB, 30893

Orbit data source: Space-Track

FENGYUN 1C DEB, 30893 is space debris in SSO originally from a launch on Mon, 10 May 1999 UTC launched from the Taiyaun Space Center, China (TSC). Fengyun 1C debris stems from the Chinese weather satellite Fengyun-1C, which was intentionally destroyed by a Chinese anti-satellite missile in 2007. This event dramatically increased the amount of space debris, with thousands of trackable fragments posing hazards to satellites and human spaceflight. The Fengyun 1C debris cloud has become a focal point in discussions about space sustainability and the need for international regulations to prevent the creation of new debris.

Loading next visibility...
Identifier
30893, 1999-025AYF
Orbit
SSO
Country
Flag of CNCN / PRC
Related business
Manufacturer
Unknown
Mission
Spacecraft
Bus & Motor
Unknown
Mass
Unknown
Launch date (UTC)
1999-05-10 (27 years ago)
Launch vehicle
Unknown
Launch site
Taiyaun Space Center, China (TSC)
Object type
Payload
Rocket body
Debris
Shape & HBR
Unknown shape, 0.1 m
Radar Cross Section
Small (<0.1 m²)

Expand to show TLE details & history
Last TLE update: 2 weeks ago

TLE from 2 weeks ago
0 FENGYUN 1C DEB
1 30893U 99025AYF 26246.27849876  .00000697  00000-0  36792-3 0  9991
2 30893  98.2441 250.7818 0308324  71.3749 304.4290 13.94751674985725
Epoch: 2026-09-03T06:41Z
TLE epoch observation values (Epoch: 2026-09-03T06:41:02.292Z)
Latitude
12.65312°
Longitude
166.24922°
Altitude
791.899 km
Speed
7.521 km/s
True Right ascension
16h 35m 42s
True Declination
12° 34' 49"
Sunlit
Object was in daylight at epoch
Visualization orbit readout
Latitude
Unknown
Longitude
Unknown
Altitude
Unknown
Speed
Unknown
Apparent Right ascension
Unknown
Apparent Declination
Unknown
Sunlit
N/A
Visualization observer readout
Local Sidereal Time
07:37:46
Azimuth
Unknown
Elevation
Unknown
Doppler factor
Unknown
Orbital elements
Apogee altitude
1,133.879 km
Perigee altitude
684.507 km
Semi-major axis
7,287.33 km
Eccentricity
0.03083
Inclination
98.2441°
RAAN
250.7818°
Arg. of periapsis
71.3749°
True anomaly
301.45126°
Mean anomaly
304.429°
Eccentric anomaly
302.94654°
Mean motion
3.48892 °/min
Orbital period
103.18 mins
BSTAR
0.00036792
Loading maneuver chart data...
Computing Atmospheric mass density...

Documentation

Showing up to 5 results
|